Tracking 20083 objects as of 8-Dec-2019
HD Live streaming from Space Station
objects crossing your sky now

TITAN 3C TRANSTAGE DEB

Track TITAN 3C TRANSTAGE DEB now!
10-day predictions


NORAD ID: 26526
Int'l Code: 1965-108AM
Perigee: 527.4 km
Apogee: 26,803.2 km
Inclination: 27.3 °
Period: 470.4 minutes
Semi major axis: 20036 km
RCS: 0.0834 m2 (small)
Launch date: December 21, 1965
Source: United States (US)
Launch site: AIR FORCE EASTERN TEST RANGE (AFETR)

Note: This is SATELLITE DEBRIS
aabbcc
Your satellite tracking list
Your tracking list is empty




NASA's NSSDC Master Catalog

Two Line Element Set (TLE):
1 26526U 65108AM  19331.61643993 -.00000829  00000-0 -32194-2 0  9991
2 26526  27.2501  84.4081 6557043 203.6652 344.5286  3.06109006218771
Source of the keplerian elements: AFSPC